Location: The Saddle
(36.8333°N, 80.3417°W)
Time: 13:03:57
(UTC-05:00)

A-11 Canister half - Pass Details

Date: 14 December 2023
Orbit: 1526 x 1682 km, 47.3° (Epoch: 22 February)

Event Time Altitude Azimuth Distance (km) Brightness Sun altitude
Rises 19:52:36 0° 285° (WNW) 4,929 12.6 -32.5°
Reaches altitude 10° 19:56:00 10° 291° (WNW) 3,945 11.8 -33.2°
Maximum altitude 20:05:42 47° 3° (N) 2,129 9.5 -35.1°
Enters shadow 20:06:16 46° 12° (NNE) 2,137 9.5 -35.2°
Drops below altitude 10° 20:15:16 10° 75° (ENE) 3,898 - -37.0°
Sets 20:18:35 0° 82° (E) 4,866 - -37.7°
